Wind_Speed
40 39 37 34 32 32 25 16 14 14 12 10 10 9 19 14 10 13 4 2 7 9 8 8 8 8 9 5 2 6 6 9 8 6 4 5 11 9 10 12 13 14 16 13
41 44 39 36 33 34 25 20 14 14 16 15 14 6 18 18 14 17 9 6 4 7 10 13 15 12 6 6 7 9 12 14 14 13 11 11 14 12 12 12 14 16 17 18
42 45 38 37 34 33 25 18 17 15 18 18 17 7 12 19 18 18 15 12 8 9 9 8 14 13 9 2 3 4 6 9 12 18 20 17 16 13 12 13 18 20 22 23
43 41 43 37 34 32 26 18 17 19 17 18 17 12 8 18 19 21 21 18 12 12 9 8 12 15 9 3 5 6 12 9 7 9 11 16 19 16 11 15 22 23 23 26
48 44 44 40 36 32 30 20 21 21 17 19 16 18 9 13 20 26 23 23 19 11 12 10 11 11 9 4 3 1 6 12 18 20 11 8 11 17 19 20 24 26 29 29
50 50 48 47 42 37 33 28 26 21 18 20 16 21 13 12 15 19 24 27 25 19 16 16 16 14 12 5 8 6 4 3 8 16 16 7 6 5 9 14 15 16 18 21
51 51 52 52 49 44 39 37 29 21 20 23 18 20 18 14 16 19 20 25 30 27 21 22 19 16 13 13 15 8 5 6 11 14 10 4 11 10 14 11 14 20 22 20
55 55 53 52 51 49 43 39 32 25 25 25 22 20 25 20 19 18 18 20 28 26 25 26 28 25 21 21 16 19 15 12 15 15 14 8 11 13 15 9 12 15 8 6
63 61 56 58 54 49 46 41 38 29 27 26 25 24 28 25 24 22 20 20 24 31 29 29 26 28 27 26 25 25 23 18 19 19 17 13 15 10 10 10 16 3 2 11
71 68 66 63 59 55 51 46 41 37 33 30 31 29 28 30 27 29 24 22 23 26 32 33 29 27 27 29 26 23 23 21 20 16 15 16 16 9 6 9 15 6 10 21
68 71 75 71 67 65 59 53 48 44 36 34 35 34 35 34 34 31 27 26 26 24 26 31 30 28 28 26 26 24 24 24 19 16 17 12 9 9 8 10 17 19 24 25
65 67 67 70 73 73 69 63 58 52 44 39 37 35 38 38 40 35 33 31 30 29 27 27 33 30 31 34 31 28 27 29 22 21 20 15 11 11 15 10 11 24 31 35
54 59 67 70 69 72 73 72 68 62 56 45 42 41 44 42 44 40 38 37 33 33 33 30 31 36 36 37 36 31 29 28 27 25 26 24 24 28 21 16 20 31 36 38
44 52 57 63 70 69 71 70 70 71 64 58 52 50 48 46 47 44 42 42 39 38 38 37 35 32 31 30 32 33 33 31 29 27 28 28 24 24 21 23 30 29 34 35
32 39 48 54 57 63 69 70 70 68 68 65 61 56 53 50 48 49 47 46 44 43 42 41 39 37 34 35 34 33 35 34 32 30 31 30 30 23 29 25 29 37 42 50
23 28 32 42 52 57 58 64 69 71 68 65 66 60 63 56 54 54 50 49 49 48 46 45 43 40 39 37 35 34 35 35 33 30 31 31 33 32 31 31 33 40 47 48
21 21 27 30 40 47 49 58 62 66 68 68 65 68 61 65 59 59 56 52 53 51 51 49 48 44 42 39 36 34 36 34 31 29 32 31 30 31 35 37 37 43 47 48
28 20 23 25 32 33 45 51 55 59 62 69 68 65 68 68 66 65 62 58 54 56 54 55 53 46 45 42 37 35 38 36 32 31 32 31 30 32 37 38 41 44 46 45
31 30 23 23 25 31 38 42 48 57 57 59 66 67 64 68 70 72 68 64 58 56 58 57 55 51 47 44 42 40 37 36 32 30 29 31 32 32 42 42 42 37 40 44
33 31 27 27 25 27 31 38 43 53 54 52 59 64 66 66 74 73 70 68 65 60 60 59 57 54 52 47 44 41 41 36 34 28 25 29 32 41 50 49 46 46 48 51
34 35 35 32 27 27 28 34 37 42 51 48 56 61 65 67 68 71 72 70 70 66 64 61 58 55 53 51 47 43 41 38 37 27 30 31 30 40 42 45 49 48 51 53
40 37 39 39 34 29 27 26 27 36 41 48 52 58 61 67 70 69 72 74 72 72 69 66 62 58 55 53 49 44 43 41 36 30 25 28 34 43 45 49 54 59 59 53
49 46 43 43 44 38 33 34 27 33 37 40 47 55 61 65 68 69 70 75 77 74 73 71 68 63 58 54 51 48 41 36 39 32 31 32 39 43 49 48 50 58 56 46
56 54 51 48 52 46 43 41 42 33 37 43 54 55 55 60 63 70 70 72 77 78 76 75 74 68 63 58 55 50 42 39 37 37 39 41 38 39 50 54 53 53 50 52
62 60 61 53 57 54 50 49 48 44 32 37 48 50 48 59 62 67 72 70 72 76 78 77 76 73 68 65 60 53 48 43 47 47 45 42 45 46 46 51 47 53 57 57
66 67 67 63 66 63 56 55 54 50 36 31 36 42 44 46 60 64 67 71 72 73 76 79 79 77 73 67 62 56 53 53 52 52 53 51 50 48 49 50 51 57 58 61
Wind_Direction
273 277 280 283 290 293 304 316 310 294 279 274 275 222 216 223 249 228 230 293 210 205 212 208 169 143 131 119 145 200 200 219 218 234 252 257 236 248 247 239 265 264 268 268
265 270 272 276 278 283 297 304 312 299 286 281 280 251 211 208 221 220 212 202 220 232 218 219 217 229 251 283 283 265 263 267 273 271 264 266 242 235 236 268 273 276 280 279
262 265 272 273 275 278 284 289 299 291 283 284 284 269 214 198 203 209 214 201 221 216 221 219 222 215 229 177 63 355 309 284 278 274 267 259 252 241 258 267 265 271 271 281
256 261 265 266 267 270 274 271 275 280 278 276 281 275 211 210 198 206 220 212 205 227 228 193 204 205 198 150 70 39 19 344 320 307 283 257 246 244 242 278 278 281 278 283
254 256 260 262 260 261 261 257 263 271 278 273 272 271 233 213 214 208 216 220 207 213 226 193 195 189 285 161 217 130 13 32 39 33 4 290 269 250 251 259 269 279 290 287
250 250 252 255 254 253 257 251 252 261 271 267 261 267 261 227 212 212 212 225 214 214 223 204 200 202 211 264 286 212 220 353 346 2 17 41 29 331 272 264 276 288 296 300
248 249 250 253 253 251 248 252 248 251 257 255 261 261 262 251 224 209 212 216 221 219 222 217 211 210 229 248 287 233 254 296 320 338 358 4 344 341 319 290 293 301 307 308
248 247 247 251 252 254 257 255 254 245 243 243 259 253 263 258 251 216 214 214 214 220 217 224 230 236 244 257 260 265 265 289 320 321 341 306 345 347 346 346 353 333 341 37
248 249 247 249 249 250 251 253 248 244 238 235 242 245 260 255 254 247 231 219 218 215 221 227 237 246 257 257 260 266 262 283 305 314 327 306 302 357 9 20 13 26 305 351
250 250 251 250 251 251 249 245 245 240 233 230 232 233 241 251 249 255 249 242 231 227 226 232 240 250 251 254 254 263 267 285 299 305 317 311 296 289 316 357 352 327 292 315
250 250 252 254 254 253 251 248 245 243 238 238 231 232 236 242 244 246 248 251 246 242 241 230 229 243 251 252 254 260 266 279 287 289 299 294 295 284 249 318 344 346 327 328
247 247 247 249 251 252 253 251 248 246 243 234 234 235 234 241 243 243 247 243 248 251 253 245 231 234 242 246 248 261 264 267 275 277 281 267 268 288 284 243 307 328 318 315
250 245 244 245 245 245 247 248 249 248 245 236 233 234 240 238 245 243 245 246 243 246 249 248 239 236 241 246 252 257 262 265 271 277 281 269 283 299 277 284 314 315 318 313
253 253 248 246 246 246 245 244 244 245 243 241 234 233 237 243 243 244 244 247 245 243 246 248 245 242 242 246 250 252 256 262 268 277 277 277 294 303 269 287 308 308 308 309
260 255 251 247 246 250 246 244 243 242 240 237 236 232 235 237 248 244 242 244 245 244 242 245 247 250 246 246 247 253 258 262 268 278 282 282 295 288 275 274 302 299 302 306
260 255 252 246 245 244 245 248 245 244 241 236 234 231 230 231 236 246 242 241 243 245 246 245 246 246 250 254 256 256 261 266 274 280 282 287 290 297 294 292 294 292 313 318
301 278 260 250 248 244 244 246 244 242 240 238 234 231 227 229 231 237 243 241 242 243 248 249 249 248 252 253 258 265 269 274 279 282 282 286 289 288 295 299 307 310 314 315
345 315 277 271 260 252 239 244 246 245 239 236 234 231 229 227 227 232 236 240 241 244 244 248 251 250 252 256 260 263 267 275 283 287 281 283 285 294 301 295 298 299 305 307
342 335 331 276 273 261 253 241 242 247 243 238 233 232 230 230 228 228 230 236 237 242 247 247 251 251 251 253 255 257 264 270 277 280 280 280 292 299 304 302 308 307 313 318
329 331 327 325 292 274 267 253 244 245 245 240 236 230 230 229 230 226 230 232 237 238 244 248 249 252 253 251 254 256 258 264 270 271 271 277 295 296 299 295 301 308 306 311
316 317 320 321 316 312 287 269 255 255 251 240 239 232 228 230 230 230 231 231 235 236 241 247 251 252 254 255 253 253 258 263 266 268 258 270 279 290 297 299 297 301 302 307
308 309 311 314 314 310 305 301 279 262 253 249 236 234 230 229 228 226 228 231 231 236 237 242 247 251 253 255 256 257 258 260 266 262 267 266 277 284 273 281 291 298 301 305
301 302 303 300 303 305 300 300 295 268 255 255 251 236 229 228 227 228 227 227 230 232 236 238 241 244 248 252 255 253 255 261 261 265 262 263 281 272 277 286 290 298 303 303
297 297 296 292 292 299 297 300 305 302 274 255 247 241 230 227 226 226 228 228 228 230 232 235 238 240 243 246 250 254 252 252 253 251 256 263 265 262 273 277 288 294 295 297
294 292 291 293 289 289 292 291 297 296 298 259 251 249 234 224 221 226 226 227 229 230 232 235 238 238 238 240 244 247 248 245 249 251 253 254 255 269 271 278 283 283 284 292
293 294 291 289 287 285 287 288 291 296 290 275 243 240 240 233 221 225 226 225 228 229 230 233 237 240 241 241 241 244 246 248 252 252 251 249 260 271 273 268 272 283 290 295
Height
10955 10957 10958 10961 10961 10963 10964 10964 10963 10962 10962 10962 10962 10964 10965 10966 10967 10967 10967 10966 10967 10969 10970 10972 10973 10973 10973 10975 10976 10976 10976 10976 10976 10975 10975 10974 10974 10974 10975 10975 10976 10976 10975 10974
10949 10947 10952 10955 10957 10957 10960 10961 10959 10957 10957 10957 10957 10960 10961 10962 10964 10965 10965 10965 10966 10966 10968 10969 10971 10972 10972 10973 10974 10974 10974 10974 10974 10973 10972 10972 10971 10971 10972 10973 10973 10973 10973 10972
10940 10939 10945 10948 10950 10951 10955 10957 10956 10955 10953 10952 10952 10956 10957 10959 10960 10961 10963 10963 10964 10965 10965 10967 10969 10971 10972 10971 10971 10970 10970 10969 10969 10969 10969 10969 10968 10968 10969 10969 10970 10969 10969 10968
10931 10934 10934 10939 10943 10944 10948 10952 10952 10950 10950 10948 10948 10950 10953 10954 10957 10957 10958 10960 10961 10963 10963 10965 10966 10968 10968 10968 10968 10968 10968 10966 10965 10965 10964 10964 10964 10964 10964 10966 10964 10962 10962 10961
10920 10925 10926 10930 10933 10937 10940 10946 10946 10946 10946 10945 10945 10944 10948 10949 10951 10953 10955 10956 10958 10960 10960 10962 10964 10965 10966 10966 10968 10968 10967 10965 10963 10961 10960 10959 10959 10959 10960 10960 10959 10958 10955 10953
10911 10913 10916 10918 10923 10928 10931 10936 10939 10941 10942 10941 10943 10939 10942 10945 10946 10948 10950 10951 10953 10956 10958 10958 10959 10961 10962 10964 10966 10964 10964 10962 10961 10960 10958 10956 10956 10955 10955 10955 10953 10951 10948 10945
10897 10903 10904 10906 10911 10917 10922 10925 10933 10937 10937 10935 10938 10935 10936 10939 10940 10943 10945 10946 10948 10951 10954 10956 10955 10957 10960 10961 10962 10961 10960 10958 10957 10957 10957 10955 10954 10953 10951 10949 10947 10945 10941 10939
10884 10887 10892 10896 10900 10905 10915 10920 10926 10930 10931 10930 10932 10932 10929 10932 10935 10938 10940 10941 10943 10946 10948 10950 10951 10952 10954 10956 10956 10956 10955 10955 10955 10954 10954 10953 10952 10949 10947 10945 10943 10939 10937 10936
10869 10873 10882 10882 10889 10897 10903 10910 10914 10922 10923 10925 10925 10926 10922 10925 10928 10931 10934 10936 10937 10940 10942 10944 10946 10947 10948 10949 10949 10950 10951 10952 10952 10952 10951 10949 10948 10947 10945 10942 10941 10938 10937 10936
10855 10861 10865 10870 10879 10885 10892 10900 10906 10910 10916 10917 10916 10918 10918 10917 10920 10921 10926 10929 10932 10933 10934 10937 10940 10942 10942 10943 10944 10945 10947 10948 10948 10947 10946 10945 10943 10943 10942 10940 10939 10938 10936 10933
10838 10847 10849 10858 10865 10868 10878 10888 10894 10899 10908 10911 10911 10912 10909 10909 10910 10912 10916 10920 10923 10925 10927 10929 10932 10935 10936 10938 10939 10940 10942 10943 10942 10941 10940 10938 10937 10937 10937 10935 10933 10932 10932 10930
10818 10825 10830 10837 10844 10852 10861 10871 10880 10887 10897 10901 10904 10904 10903 10902 10902 10904 10907 10910 10913 10916 10920 10922 10923 10927 10930 10933 10934 10935 10936 10936 10935 10933 10932 10932 10931 10930 10930 10928 10925 10923 10922 10919
10801 10805 10810 10815 10823 10826 10838 10851 10860 10869 10880 10891 10895 10896 10891 10894 10895 10898 10900 10902 10905 10907 10909 10913 10916 10919 10922 10924 10927 10928 10928 10926 10925 10925 10925 10925 10924 10923 10922 10920 10919 10917 10914 10912
10788 10791 10795 10798 10801 10813 10818 10827 10838 10847 10859 10871 10879 10883 10884 10886 10887 10891 10894 10895 10897 10898 10900 10904 10906 10910 10913 10915 10917 10918 10918 10917 10917 10919 10919 10919 10919 10917 10917 10914 10911 10908 10906 10904
10778 10779 10781 10785 10788 10792 10799 10808 10816 10826 10837 10847 10860 10870 10874 10877 10879 10880 10884 10886 10888 10889 10891 10895 10898 10901 10903 10905 10907 10909 10908 10909 10910 10911 10911 10911 10910 10912 10912 10909 10906 10900 10896 10896
10767 10767 10770 10770 10772 10776 10782 10788 10798 10806 10817 10828 10838 10851 10854 10863 10866 10866 10871 10874 10876 10878 10882 10885 10888 10891 10894 10896 10898 10899 10900 10900 10902 10903 10902 10902 10900 10901 10902 10902 10902 10896 10892 10888
10762 10760 10760 10761 10760 10763 10771 10770 10774 10784 10796 10806 10818 10824 10842 10844 10852 10854 10857 10862 10864 10868 10869 10874 10877 10881 10884 10887 10889 10892 10892 10891 10893 10894 10892 10894 10894 10894 10892 10891 10890 10887 10884 10880
10758 10754 10751 10750 10751 10755 10752 10757 10759 10762 10773 10783 10796 10808 10818 10827 10835 10839 10843 10848 10853 10856 10858 10860 10865 10873 10875 10879 10882 10884 10882 10884 10885 10885 10884 10884 10885 10886 10885 10884 10883 10880 10877 10873
10752 10749 10747 10744 10740 10740 10741 10744 10747 10746 10754 10765 10777 10789 10801 10809 10816 10819 10826 10833 10839 10844 10847 10850 10854 10861 10865 10868 10871 10873 10874 10875 10877 10879 10877 10878 10878 10877 10875 10873 10872 10869 10865 10863
10747 10744 10741 10738 10734 10731 10729 10733 10733 10732 10738 10752 10758 10770 10781 10788 10791 10801 10813 10820 10824 10831 10834 10838 10843 10848 10852 10857 10861 10864 10865 10867 10868 10869 10869 10871 10869 10868 10864 10862 10859 10857 10854 10852
10741 10736 10734 10732 10729 10724 10723 10719 10724 10726 10726 10736 10740 10750 10761 10768 10774 10789 10797 10804 10810 10816 10820 10825 10831 10836 10841 10845 10850 10853 10855 10858 10858 10859 10857 10858 10855 10855 10856 10850 10848 10847 10845 10843
10730 10729 10725 10721 10720 10718 10715 10712 10712 10711 10712 10715 10721 10730 10739 10747 10754 10763 10775 10785 10792 10797 10805 10810 10817 10824 10828 10832 10838 10843 10846 10846 10849 10850 10848 10848 10846 10845 10842 10841 10839 10834 10833 10831
10716 10715 10714 10711 10706 10707 10705 10702 10699 10700 10700 10702 10706 10711 10717 10726 10738 10748 10754 10763 10774 10779 10787 10794 10799 10807 10815 10821 10826 10829 10833 10838 10838 10841 10839 10838 10837 10834 10835 10831 10827 10824 10820 10818
10699 10698 10698 10696 10690 10694 10692 10690 10688 10687 10686 10688 10685 10689 10701 10711 10721 10728 10736 10747 10755 10762 10768 10775 10781 10791 10800 10806 10810 10816 10822 10825 10828 10830 10829 10828 10827 10826 10823 10821 10817 10813 10809 10808
10680 10681 10676 10681 10673 10674 10677 10675 10675 10673 10672 10671 10670 10677 10686 10693 10701 10710 10719 10729 10738 10746 10754 10760 10766 10774 10784 10790 10796 10804 10808 10812 10813 10814 10815 10817 10816 10815 10813 10811 10807 10803 10801 10799
10662 10658 10657 10660 10652 10653 10659 10659 10659 10659 10660 10657 10658 10662 10669 10679 10686 10695 10703 10712 10719 10727 10736 10745 10751 10758 10766 10778 10785 10791 10794 10797 10800 10800 10800 10803 10802 10801 10799 10797 10793 10791 10789 10786